Find Starlink 11178

NORAD ID: 62465 Int'l Des: 2024-254 Owner: SPXS Country: US Constellation: starlink operational
LEOCIRCULAR

リアルタイム位置

3D地球を読み込み中...

Starlink 11178について

説明を読み込み中...

次回通過

Passes for default location (London). Set your location on the main map for personalized predictions.

高度履歴

Loading altitude history...

軌道要素

1 62465U 24254D 26122.38635515 .00335486 00000-0 24965-2 0 9996
2 62465 42.9995 259.5553 0001943 248.2450 111.8211 15.71005387 77689
Epoch: May 2, 2026 • Age: 9 hours

現在のステータス

高度 355.1 km
速度 7.70 km/s
衛星直下点 5.92°N, 125.96°E
打ち上げ日 Dec 31, 2024
運用期間 1.3 years
タイプ internet

技術仕様

分類 Payload
質量 960.00 kg
乾燥質量 910.00 kg
総質量 960.00 kg
長さ 0.30 m
直径 4.10 m
スパン 29.00 m
形状 Box + pan
製造者 SPXS
バスタイプ Starlink V2MD
フェーズステータス In Orbit
所有者/国 SPXS/US

Most Searched